• In Netherlands
  • List of Countries
  • For 7 days
  • Water Temperature
  • Satellite Maps
  • Weather Map
  • Weather Widgets
  • user-avatar
    Login

    Hourly Weather Baranovichi

    Today, 26 June, Monday

    Time Temperature Precipitation Wind Pressure Humidity
    00:00 +17°C° 0.4 mm 2 mps 740 mmHg 88%
    01:00 +16°C° 0.4 mm 2 mps 740 mmHg 91%
    02:00 +16°C° 0.4 mm 2 mps 739 mmHg 94%
    03:00 +16°C° 0.1 mm 2 mps 739 mmHg 95%
    04:00 +16°C° 0.1 mm 1 mps 739 mmHg 96%
    05:00 +16°C° 0.1 mm 1 mps 739 mmHg 96%
    06:00 +17°C° 0 mm 2 mps 739 mmHg 93%
    07:00 +18°C° 0 mm 2 mps 739 mmHg 90%
    08:00 +19°C° 0 mm 2 mps 740 mmHg 86%
    09:00 +21°C° 0.1 mm 3 mps 740 mmHg 78%
    10:00 +22°C° 0.1 mm 4 mps 740 mmHg 69%
    11:00 +23°C° 0.1 mm 4 mps 740 mmHg 61%
    12:00 +23°C° 0.2 mm 5 mps 739 mmHg 59%
    13:00 +23°C° 0.2 mm 5 mps 739 mmHg 57%
    14:00 +23°C° 0.2 mm 5 mps 739 mmHg 54%
    15:00 +22°C° 0.1 mm 4 mps 739 mmHg 60%
    16:00 +21°C° 0.1 mm 4 mps 739 mmHg 65%
    17:00 +20°C° 0.1 mm 3 mps 739 mmHg 70%
    18:00 +19°C° 0.1 mm 3 mps 740 mmHg 75%
    19:00 +18°C° 0.1 mm 2 mps 740 mmHg 80%
    20:00 +17°C° 0.1 mm 2 mps 740 mmHg 84%
    21:00 +16°C° 0 mm 2 mps 740 mmHg 87%
    22:00 +15°C° 0 mm 2 mps 741 mmHg 90%
    23:00 +14°C° 0 mm 2 mps 741 mmHg 93%

    Tomorrow, 27 June, Tuesday

    Time Temperature Precipitation Wind Pressure Humidity
    00:00 +13°C° 0 mm 2 mps 741 mmHg 93%
    01:00 +12°C° 0 mm 2 mps 742 mmHg 94%
    02:00 +10°C° 0 mm 2 mps 742 mmHg 95%
    03:00 +10°C° 0 mm 2 mps 742 mmHg 94%
    04:00 +10°C° 0 mm 2 mps 743 mmHg 94%
    05:00 +10°C° 0 mm 2 mps 743 mmHg 93%
    06:00 +13°C° 0 mm 2 mps 743 mmHg 85%
    07:00 +15°C° 0 mm 2 mps 743 mmHg 77%
    08:00 +17°C° 0 mm 2 mps 743 mmHg 69%
    09:00 +18°C° 0 mm 3 mps 743 mmHg 61%
    10:00 +20°C° 0 mm 3 mps 744 mmHg 52%
    11:00 +21°C° 0 mm 4 mps 744 mmHg 43%
    12:00 +22°C° 0 mm 4 mps 744 mmHg 42%
    13:00 +23°C° 0 mm 4 mps 743 mmHg 41%
    14:00 +25°C° 0 mm 4 mps 743 mmHg 39%
    15:00 +25°C° 0 mm 3 mps 743 mmHg 41%
    16:00 +25°C° 0 mm 3 mps 743 mmHg 42%
    17:00 +25°C° 0 mm 3 mps 743 mmHg 44%
    18:00 +23°C° 0 mm 2 mps 743 mmHg 52%
    19:00 +20°C° 0 mm 2 mps 743 mmHg 61%
    20:00 +18°C° 0 mm 2 mps 743 mmHg 70%
    21:00 +17°C° 0 mm 2 mps 743 mmHg 74%
    22:00 +15°C° 0 mm 2 mps 744 mmHg 78%
    23:00 +14°C° 0 mm 2 mps 744 mmHg 82%

    Day after tomorrow, 28 June, Wednesday

    Time Temperature Precipitation Wind Pressure Humidity
    00:00 +13°C° 0 mm 2 mps 744 mmHg 84%
    01:00 +13°C° 0 mm 2 mps 744 mmHg 87%
    02:00 +12°C° 0 mm 2 mps 744 mmHg 89%
    03:00 +12°C° 0 mm 2 mps 744 mmHg 87%
    04:00 +12°C° 0 mm 2 mps 744 mmHg 86%
    05:00 +10°C° 0 mm 2 mps 744 mmHg 84%
    06:00 +14°C° 0 mm 2 mps 744 mmHg 76%
    07:00 +16°C° 0 mm 2 mps 745 mmHg 67%
    08:00 +18°C° 0 mm 2 mps 745 mmHg 59%
    09:00 +20°C° 0 mm 2 mps 744 mmHg 54%
    10:00 +23°C° 0 mm 2 mps 744 mmHg 49%
    11:00 +26°C° 0 mm 2 mps 744 mmHg 44%
    12:00 +27°C° 0 mm 2 mps 744 mmHg 43%
    13:00 +28°C° 0 mm 2 mps 744 mmHg 41%
    14:00 +29°C° 0 mm 2 mps 743 mmHg 39%
    15:00 +29°C° 0 mm 2 mps 743 mmHg 41%
    16:00 +29°C° 0 mm 2 mps 742 mmHg 43%
    17:00 +29°C° 0 mm 3 mps 742 mmHg 46%
    18:00 +27°C° 0 mm 2 mps 742 mmHg 55%
    19:00 +25°C° 0 mm 2 mps 742 mmHg 64%
    20:00 +24°C° 0 mm 2 mps 741 mmHg 74%
    21:00 +22°C° 0 mm 3 mps 741 mmHg 73%
    22:00 +21°C° 0 mm 3 mps 741 mmHg 72%
    23:00 +20°C° 0 mm 3 mps 741 mmHg 71%

    29 June, Thursday

    Time Temperature Precipitation Wind Pressure Humidity
    00:00 +20°C° 0 mm 3 mps 741 mmHg 72%
    01:00 +20°C° 0 mm 3 mps 741 mmHg 72%
    02:00 +19°C° 0 mm 3 mps 741 mmHg 73%
    03:00 +19°C° 0 mm 4 mps 740 mmHg 73%
    04:00 +19°C° 0 mm 4 mps 740 mmHg 73%
    05:00 +19°C° 0 mm 4 mps 740 mmHg 73%
    06:00 +21°C° 0 mm 4 mps 739 mmHg 70%
    07:00 +22°C° 0 mm 4 mps 739 mmHg 68%
    08:00 +25°C° 0 mm 5 mps 739 mmHg 66%
    09:00 +27°C° 0 mm 5 mps 739 mmHg 60%
    10:00 +29°C° 0 mm 6 mps 739 mmHg 54%
    11:00 +32°C° 0 mm 6 mps 738 mmHg 47%
    12:00 +33°C° 0 mm 6 mps 738 mmHg 44%
    13:00 +34°C° 0 mm 6 mps 738 mmHg 40%
    14:00 +35°C° 0 mm 6 mps 737 mmHg 36%
    15:00 +35°C° 0 mm 6 mps 737 mmHg 38%
    16:00 +35°C° 0 mm 5 mps 736 mmHg 40%
    17:00 +35°C° 0 mm 5 mps 736 mmHg 41%
    18:00 +32°C° 1.3 mm 5 mps 736 mmHg 53%
    19:00 +28°C° 1.3 mm 5 mps 736 mmHg 66%
    20:00 +26°C° 1.3 mm 5 mps 736 mmHg 78%
    21:00 +23°C° 1.7 mm 4 mps 736 mmHg 83%
    22:00 +22°C° 1.7 mm 4 mps 736 mmHg 88%
    23:00 +21°C° 1.7 mm 3 mps 736 mmHg 94%

    30 June, Friday

    Time Temperature Precipitation Wind Pressure Humidity
    00:00 +21°C° 0.4 mm 3 mps 736 mmHg 94%
    01:00 +20°C° 0.4 mm 4 mps 736 mmHg 94%
    02:00 +20°C° 0.4 mm 4 mps 735 mmHg 94%
    03:00 +20°C° 0.4 mm 4 mps 735 mmHg 92%
    04:00 +20°C° 0.4 mm 4 mps 735 mmHg 91%
    05:00 +20°C° 0.4 mm 4 mps 735 mmHg 89%
    06:00 +21°C° 0.1 mm 5 mps 735 mmHg 82%
    07:00 +22°C° 0.1 mm 5 mps 735 mmHg 75%
    08:00 +23°C° 0.1 mm 6 mps 735 mmHg 68%
    09:00 +23°C° 0.3 mm 6 mps 735 mmHg 67%
    10:00 +23°C° 0.3 mm 7 mps 736 mmHg 66%
    11:00 +23°C° 0.3 mm 7 mps 736 mmHg 66%
    12:00 +23°C° 0.2 mm 7 mps 736 mmHg 65%
    13:00 +23°C° 0.2 mm 6 mps 737 mmHg 64%
    14:00 +22°C° 0.2 mm 6 mps 737 mmHg 63%
    15:00 +22°C° 0.2 mm 6 mps 737 mmHg 64%
    16:00 +22°C° 0.2 mm 5 mps 737 mmHg 65%
    17:00 +22°C° 0.2 mm 5 mps 738 mmHg 66%
    18:00 +21°C° 0.3 mm 5 mps 738 mmHg 72%
    19:00 +19°C° 0.3 mm 4 mps 738 mmHg 78%
    20:00 +18°C° 0.3 mm 4 mps 738 mmHg 84%
    21:00 +17°C° 0 mm 4 mps 738 mmHg 83%
    22:00 +17°C° 0 mm 3 mps 738 mmHg 82%
    23:00 +16°C° 0 mm 3 mps 739 mmHg 82%

    1 July, Saturday

    Time Temperature Precipitation Wind Pressure Humidity
    00:00 +15°C° 0 mm 4 mps 739 mmHg 79%
    01:00 +15°C° 0 mm 4 mps 739 mmHg 76%
    02:00 +15°C° 0 mm 4 mps 739 mmHg 74%
    03:00 +15°C° 0 mm 4 mps 739 mmHg 72%
    04:00 +15°C° 0 mm 5 mps 739 mmHg 71%
    05:00 +15°C° 0 mm 5 mps 739 mmHg 69%
    06:00 +16°C° 0 mm 5 mps 739 mmHg 64%
    07:00 +19°C° 0 mm 6 mps 740 mmHg 58%
    08:00 +20°C° 0 mm 7 mps 740 mmHg 53%
    09:00 +22°C° 0 mm 7 mps 740 mmHg 47%
    10:00 +23°C° 0 mm 7 mps 739 mmHg 42%
    11:00 +24°C° 0 mm 7 mps 739 mmHg 37%
    12:00 +26°C° 0 mm 7 mps 739 mmHg 35%
    13:00 +27°C° 0 mm 7 mps 739 mmHg 34%
    14:00 +27°C° 0 mm 7 mps 739 mmHg 32%
    15:00 +27°C° 0 mm 6 mps 739 mmHg 35%
    16:00 +27°C° 0 mm 5 mps 739 mmHg 37%
    17:00 +26°C° 0 mm 4 mps 738 mmHg 40%
    18:00 +23°C° 0 mm 4 mps 738 mmHg 47%
    19:00 +22°C° 0 mm 3 mps 738 mmHg 55%
    20:00 +20°C° 0 mm 2 mps 738 mmHg 63%
    21:00 +19°C° 0 mm 2 mps 738 mmHg 63%
    22:00 +18°C° 0 mm 2 mps 738 mmHg 64%
    23:00 +17°C° 0 mm 2 mps 739 mmHg 64%
    Show more